Time,TemperatureF,DewpointF,PressureIn,WindDirection,WindDirectionDegrees,WindSpeedMPH,WindSpeedGustMPH,Humidity,HourlyPrecipIn,Conditions,Clouds,dailyrainin,SoftwareType,DateUTC
2013-03-09 00:01:00,29.0,23.0,30.31,West,273,0.0,2.0,79,0.00,,,0.02,,2013-03-09 08:01:00,
2013-03-09 00:11:00,29.0,23.0,30.31,West,273,0.0,2.0,79,0.00,,,0.02,,2013-03-09 08:11:00,
2013-03-09 00:21:00,30.0,24.0,30.31,West,273,1.0,3.0,78,0.00,,,0.02,,2013-03-09 08:21:00,
2013-03-09 00:31:00,29.0,23.0,30.31,West,273,2.0,3.0,79,0.00,,,0.02,,2013-03-09 08:31:00,
2013-03-09 00:41:00,29.0,23.0,30.31,West,273,2.0,3.0,79,0.00,,,0.02,,2013-03-09 08:41:00,
2013-03-09 00:52:00,29.0,24.0,30.32,West,273,0.0,2.0,80,0.00,,,0.02,,2013-03-09 08:52:00,
2013-03-09 01:01:00,29.0,24.0,30.33,West,275,2.0,5.0,80,0.00,,,0.02,,2013-03-09 09:01:00,
2013-03-09 01:11:00,29.0,24.0,30.33,West,275,2.0,5.0,80,0.00,,,0.02,,2013-03-09 09:11:00,
2013-03-09 01:21:00,28.0,23.0,30.33,West,276,0.0,2.0,81,0.00,,,0.02,,2013-03-09 09:21:00,
2013-03-09 01:31:00,28.0,23.0,30.34,West,276,0.0,0.0,80,0.00,,,0.02,,2013-03-09 09:31:00,
2013-03-09 01:41:00,28.0,23.0,30.34,West,276,0.0,0.0,80,0.00,,,0.02,,2013-03-09 09:41:00,
2013-03-09 01:52:00,27.0,22.0,30.34,West,276,1.0,2.0,82,0.00,,,0.02,,2013-03-09 09:52:00,
2013-03-09 02:01:00,26.0,22.0,30.35,West,276,2.0,3.0,85,0.00,,,0.02,,2013-03-09 10:01:00,
2013-03-09 02:11:00,26.0,22.0,30.35,West,276,2.0,3.0,85,0.00,,,0.02,,2013-03-09 10:11:00,
2013-03-09 02:21:00,26.0,22.0,30.35,West,276,2.0,3.0,86,0.00,,,0.02,,2013-03-09 10:21:00,
2013-03-09 02:31:00,26.0,22.0,30.35,West,276,2.0,3.0,85,0.00,,,0.02,,2013-03-09 10:31:00,
2013-03-09 02:41:00,26.0,22.0,30.35,West,276,2.0,3.0,85,0.00,,,0.02,,2013-03-09 10:41:00,
2013-03-09 02:52:00,26.0,22.0,30.35,West,276,0.0,2.0,86,0.00,,,0.02,,2013-03-09 10:52:00,
2013-03-09 03:01:00,25.0,21.0,30.36,West,276,0.0,1.0,86,0.00,,,0.02,,2013-03-09 11:01:00,
2013-03-09 03:11:00,25.0,21.0,30.36,West,276,0.0,1.0,86,0.00,,,0.02,,2013-03-09 11:11:00,
2013-03-09 03:21:00,25.0,21.0,30.36,West,276,1.0,2.0,86,0.00,,,0.02,,2013-03-09 11:21:00,
2013-03-09 03:31:00,25.0,21.0,30.37,West,276,2.0,3.0,85,0.00,,,0.02,,2013-03-09 11:31:00,
2013-03-09 03:41:00,25.0,21.0,30.37,West,276,2.0,3.0,85,0.00,,,0.02,,2013-03-09 11:41:00,
2013-03-09 03:52:00,24.0,20.0,30.37,West,276,1.0,3.0,86,0.00,,,0.02,,2013-03-09 11:52:00,
2013-03-09 04:01:00,23.0,20.0,30.38,West,276,1.0,2.0,87,0.00,,,0.02,,2013-03-09 12:01:00,
2013-03-09 04:11:00,23.0,20.0,30.38,West,276,1.0,2.0,87,0.00,,,0.02,,2013-03-09 12:11:00,
2013-03-09 04:21:00,23.0,20.0,30.39,West,276,0.0,0.0,87,0.00,,,0.02,,2013-03-09 12:21:00,
2013-03-09 04:31:00,22.0,19.0,30.40,West,276,0.0,1.0,88,0.00,,,0.02,,2013-03-09 12:31:00,
2013-03-09 04:42:00,22.0,19.0,30.40,West,276,0.0,1.0,88,0.00,,,0.02,,2013-03-09 12:42:00,
2013-03-09 04:52:00,22.0,19.0,30.41,West,276,0.0,0.0,88,0.00,,,0.02,,2013-03-09 12:52:00,
2013-03-09 05:02:00,21.0,18.0,30.42,West,276,0.0,0.0,89,0.00,,,0.02,,2013-03-09 13:02:00,
2013-03-09 05:11:00,21.0,18.0,30.42,West,276,0.0,0.0,89,0.00,,,0.02,,2013-03-09 13:11:00,
2013-03-09 05:21:00,21.0,19.0,30.43,West,276,1.0,3.0,90,0.00,,,0.02,,2013-03-09 13:21:00,
2013-03-09 05:31:00,21.0,18.0,30.43,West,276,2.0,3.0,89,0.00,,,0.02,,2013-03-09 13:31:00,
2013-03-09 05:41:00,21.0,18.0,30.43,West,276,2.0,3.0,89,0.00,,,0.02,,2013-03-09 13:41:00,
2013-03-09 05:52:00,20.0,18.0,30.44,West,276,3.0,3.0,90,0.00,,,0.02,,2013-03-09 13:52:00,
2013-03-09 06:01:00,21.0,19.0,30.45,West,276,3.0,3.0,91,0.00,,,0.02,,2013-03-09 14:01:00,
2013-03-09 06:11:00,21.0,19.0,30.45,West,276,3.0,3.0,91,0.00,,,0.02,,2013-03-09 14:11:00,
2013-03-09 06:21:00,23.0,19.0,30.45,West,265,2.0,5.0,86,0.00,,,0.02,,2013-03-09 14:21:00,
2013-03-09 06:31:00,22.0,19.0,30.46,West,265,0.0,0.0,87,0.00,,,0.02,,2013-03-09 14:31:00,
2013-03-09 06:41:00,22.0,19.0,30.46,West,265,0.0,0.0,87,0.00,,,0.02,,2013-03-09 14:41:00,
2013-03-09 06:52:00,21.0,18.0,30.46,West,265,3.0,3.0,87,0.00,,,0.02,,2013-03-09 14:52:00,
2013-03-09 07:01:00,22.0,19.0,30.47,West,265,3.0,3.0,88,0.00,,,0.02,,2013-03-09 15:01:00,
2013-03-09 07:11:00,22.0,19.0,30.47,West,265,3.0,3.0,88,0.00,,,0.02,,2013-03-09 15:11:00,
2013-03-09 07:21:00,24.0,20.0,30.47,SW,220,4.0,7.0,85,0.00,,,0.02,,2013-03-09 15:21:00,
2013-03-09 07:31:00,27.0,21.0,30.47,SSW,194,4.0,7.0,79,0.00,,,0.02,,2013-03-09 15:31:00,
2013-03-09 07:42:00,27.0,21.0,30.47,SSW,194,4.0,7.0,79,0.00,,,0.02,,2013-03-09 15:42:00,
2013-03-09 07:52:00,29.0,22.0,30.47,South,183,5.0,7.0,75,0.00,,,0.02,,2013-03-09 15:52:00,
2013-03-09 08:01:00,30.0,23.0,30.48,SSE,163,4.0,7.0,75,0.00,,,0.02,,2013-03-09 16:01:00,
2013-03-09 08:21:00,32.0,23.0,30.48,SSE,160,4.0,7.0,70,0.00,,,0.02,,2013-03-09 16:21:00,
2013-03-09 08:31:00,34.0,23.0,30.50,SSE,165,5.0,7.0,64,0.00,,,0.02,,2013-03-09 16:31:00,
2013-03-09 08:52:00,35.0,26.0,30.49,SSE,157,2.0,3.0,69,0.00,,,0.02,,2013-03-09 16:52:00,
2013-03-09 09:01:00,37.0,26.0,30.49,SE,146,2.0,3.0,65,0.00,,,0.02,,2013-03-09 17:01:00,
2013-03-09 09:21:00,40.0,27.0,30.49,East,89,3.0,5.0,60,0.00,,,0.02,,2013-03-09 17:21:00,
2013-03-09 09:31:00,42.0,27.0,30.50,East,93,2.0,6.0,56,0.00,,,0.02,,2013-03-09 17:31:00,
2013-03-09 10:01:00,46.0,26.0,30.50,SSE,160,2.0,6.0,45,0.00,,,0.01,,2013-03-09 18:01:00,
2013-03-09 10:21:00,47.0,25.0,30.51,North,351,3.0,5.0,42,0.00,,,0.01,,2013-03-09 18:21:00,
2013-03-09 10:31:00,49.0,24.0,30.51,SW,231,1.0,5.0,37,0.00,,,0.01,,2013-03-09 18:31:00,
2013-03-09 10:52:00,50.0,25.0,30.51,SW,218,6.0,12.0,37,0.00,,,0.01,,2013-03-09 18:52:00,
2013-03-09 11:01:00,50.0,22.0,30.51,North,349,4.0,6.0,33,0.00,,,0.00,,2013-03-09 19:01:00,
2013-03-09 11:21:00,50.0,17.0,30.51,WNW,290,1.0,5.0,27,0.00,,,0.00,,2013-03-09 19:21:00,
2013-03-09 11:31:00,52.0,19.0,30.50,WNW,289,2.0,5.0,27,0.00,,,0.00,,2013-03-09 19:31:00,
2013-03-09 11:41:00,52.0,19.0,30.50,WNW,289,2.0,5.0,27,0.00,,,0.00,,2013-03-09 19:41:00,
2013-03-09 11:52:00,52.0,17.0,30.51,WNW,292,2.0,6.0,25,0.00,,,0.00,,2013-03-09 19:52:00,
2013-03-09 12:01:00,52.0,17.0,30.51,NNE,26,2.0,7.0,25,0.00,,,0.00,,2013-03-09 20:01:00,
2013-03-09 12:11:00,52.0,17.0,30.51,NNE,26,2.0,7.0,25,0.00,,,0.00,,2013-03-09 20:11:00,
2013-03-09 12:21:00,53.0,18.0,30.52,WNW,282,2.0,6.0,25,0.00,,,0.00,,2013-03-09 20:21:00,
2013-03-09 12:31:00,53.0,20.0,30.51,South,172,1.0,3.0,27,0.00,,,0.00,,2013-03-09 20:31:00,
2013-03-09 12:41:00,53.0,20.0,30.51,South,172,1.0,3.0,27,0.00,,,0.00,,2013-03-09 20:41:00,
2013-03-09 12:52:00,54.0,17.0,30.51,NNW,335,2.0,6.0,23,0.00,,,0.00,,2013-03-09 20:52:00,
2013-03-09 13:01:00,54.0,20.0,30.51,NNW,339,1.0,3.0,26,0.00,,,0.00,,2013-03-09 21:01:00,
2013-03-09 13:11:00,54.0,20.0,30.51,NNW,339,1.0,3.0,26,0.00,,,0.00,,2013-03-09 21:11:00,
2013-03-09 13:21:00,56.0,19.0,30.51,NW,321,5.0,15.0,23,0.00,,,0.00,,2013-03-09 21:21:00,
2013-03-09 13:31:00,57.0,20.0,30.51,NNE,29,6.0,12.0,23,0.00,,,0.00,,2013-03-09 21:31:00,
2013-03-09 13:41:00,57.0,20.0,30.51,NNE,29,6.0,12.0,23,0.00,,,0.00,,2013-03-09 21:41:00,
2013-03-09 13:52:00,56.0,21.0,30.51,East,82,3.0,9.0,25,0.00,,,0.00,,2013-03-09 21:52:00,
2013-03-09 14:01:00,57.0,17.0,30.50,ENE,63,4.0,10.0,21,0.00,,,0.00,,2013-03-09 22:01:00,
2013-03-09 14:11:00,57.0,17.0,30.50,ENE,63,4.0,10.0,21,0.00,,,0.00,,2013-03-09 22:11:00,
2013-03-09 14:21:00,57.0,19.0,30.50,NNE,27,5.0,10.0,22,0.00,,,0.00,,2013-03-09 22:21:00,
2013-03-09 14:32:00,57.0,19.0,30.50,North,11,6.0,9.0,22,0.00,,,0.00,,2013-03-09 22:32:00,
2013-03-09 14:41:00,57.0,19.0,30.50,North,11,6.0,9.0,22,0.00,,,0.00,,2013-03-09 22:41:00,
2013-03-09 14:52:00,55.0,19.0,30.50,ESE,104,1.0,3.0,24,0.00,,,0.00,,2013-03-09 22:52:00,
2013-03-09 15:01:00,56.0,16.0,30.51,NNW,348,1.0,9.0,20,0.00,,,0.00,,2013-03-09 23:01:00,
2013-03-09 15:11:00,56.0,16.0,30.51,NNW,348,1.0,9.0,20,0.00,,,0.00,,2013-03-09 23:11:00,
2013-03-09 15:21:00,57.0,20.0,30.51,NNE,31,3.0,9.0,23,0.00,,,0.00,,2013-03-09 23:21:00,
2013-03-09 15:31:00,58.0,20.0,30.51,NNE,20,5.0,8.0,23,0.00,,,0.00,,2013-03-09 23:31:00,
2013-03-09 15:41:00,58.0,20.0,30.51,NNE,20,5.0,8.0,23,0.00,,,0.00,,2013-03-09 23:41:00,
2013-03-09 15:52:00,57.0,20.0,30.51,NE,38,4.0,6.0,23,0.00,,,0.00,,2013-03-09 23:52:00,
2013-03-09 16:01:00,57.0,19.0,30.51,NNE,16,2.0,5.0,22,0.00,,,0.00,,2013-03-10 00:01:00,
2013-03-09 16:11:00,57.0,19.0,30.51,NNE,16,2.0,5.0,22,0.00,,,0.00,,2013-03-10 00:11:00,
2013-03-09 16:21:00,56.0,19.0,30.51,WNW,295,2.0,6.0,23,0.00,,,0.00,,2013-03-10 00:21:00,
2013-03-09 16:31:00,57.0,21.0,30.51,West,279,6.0,8.0,24,0.00,,,0.00,,2013-03-10 00:31:00,
2013-03-09 16:42:00,57.0,21.0,30.51,West,279,6.0,8.0,24,0.00,,,0.00,,2013-03-10 00:42:00,
2013-03-09 16:52:00,56.0,22.0,30.51,NW,308,5.0,6.0,26,0.00,,,0.00,,2013-03-10 00:52:00,
2013-03-09 17:01:00,55.0,22.0,30.50,West,273,7.0,12.0,27,0.00,,,0.00,,2013-03-10 01:01:00,
2013-03-09 17:11:00,55.0,22.0,30.50,West,273,7.0,12.0,27,0.00,,,0.00,,2013-03-10 01:11:00,
2013-03-09 17:21:00,54.0,22.0,30.51,West,281,4.0,8.0,28,0.00,,,0.00,,2013-03-10 01:21:00,
2013-03-09 17:31:00,54.0,22.0,30.51,WNW,283,5.0,9.0,29,0.00,,,0.00,,2013-03-10 01:31:00,
2013-03-09 17:41:00,54.0,22.0,30.51,WNW,283,5.0,9.0,29,0.00,,,0.00,,2013-03-10 01:41:00,
2013-03-09 17:52:00,53.0,23.0,30.51,West,276,5.0,7.0,31,0.00,,,0.00,,2013-03-10 01:52:00,
2013-03-09 18:01:00,51.0,24.0,30.51,West,277,3.0,6.0,34,0.00,,,0.00,,2013-03-10 02:01:00,
2013-03-09 18:11:00,51.0,24.0,30.51,West,277,3.0,6.0,34,0.00,,,0.00,,2013-03-10 02:11:00,
2013-03-09 18:22:00,49.0,25.0,30.51,West,279,3.0,6.0,38,0.00,,,0.00,,2013-03-10 02:22:00,
2013-03-09 18:31:00,48.0,25.0,30.52,West,277,5.0,7.0,40,0.00,,,0.00,,2013-03-10 02:31:00,
2013-03-09 18:41:00,48.0,25.0,30.52,West,277,5.0,7.0,40,0.00,,,0.00,,2013-03-10 02:41:00,
2013-03-09 18:52:00,47.0,25.0,30.53,WNW,288,5.0,8.0,41,0.00,,,0.00,,2013-03-10 02:52:00,
2013-03-09 19:01:00,46.0,25.0,30.53,West,268,4.0,7.0,44,0.00,,,0.00,,2013-03-10 03:01:00,
2013-03-09 19:11:00,45.0,25.0,30.54,West,281,4.0,7.0,46,0.00,,,0.00,,2013-03-10 03:11:00,
2013-03-09 19:21:00,45.0,25.0,30.54,West,281,4.0,7.0,46,0.00,,,0.00,,2013-03-10 03:21:00,
2013-03-09 19:31:00,47.0,26.0,30.54,West,281,5.0,8.0,44,0.00,,,0.00,,2013-03-10 03:31:00,
2013-03-09 19:41:00,47.0,26.0,30.54,West,281,5.0,8.0,44,0.00,,,0.00,,2013-03-10 03:41:00,
2013-03-09 19:52:00,47.0,26.0,30.54,WNW,294,5.0,10.0,44,0.00,,,0.00,,2013-03-10 03:52:00,
2013-03-09 20:01:00,46.0,26.0,30.54,WNW,284,6.0,8.0,45,0.00,,,0.00,,2013-03-10 04:01:00,
2013-03-09 20:11:00,46.0,26.0,30.54,WNW,284,6.0,8.0,45,0.00,,,0.00,,2013-03-10 04:11:00,
2013-03-09 20:21:00,46.0,26.0,30.54,WNW,293,5.0,8.0,46,0.00,,,0.00,,2013-03-10 04:21:00,
2013-03-09 20:31:00,45.0,26.0,30.54,WNW,282,5.0,9.0,47,0.00,,,0.00,,2013-03-10 04:31:00,
2013-03-09 20:41:00,45.0,26.0,30.54,WNW,282,5.0,9.0,47,0.00,,,0.00,,2013-03-10 04:41:00,
2013-03-09 20:52:00,45.0,27.0,30.54,WNW,299,5.0,8.0,48,0.00,,,0.00,,2013-03-10 04:52:00,
2013-03-09 21:11:00,44.0,27.0,30.55,WNW,287,6.0,9.0,50,0.00,,,0.00,,2013-03-10 05:11:00,
2013-03-09 21:21:00,44.0,27.0,30.55,West,279,6.0,9.0,51,0.00,,,0.00,,2013-03-10 05:21:00,
2013-03-09 21:31:00,44.0,28.0,30.55,WNW,284,6.0,9.0,53,0.00,,,0.00,,2013-03-10 05:31:00,
2013-03-09 21:42:00,44.0,28.0,30.56,West,271,5.0,7.0,53,0.00,,,0.00,,2013-03-10 05:42:00,
2013-03-09 22:01:00,43.0,28.0,30.56,WNW,285,5.0,7.0,54,0.00,,,0.00,,2013-03-10 06:01:00,
2013-03-09 22:11:00,38.0,26.0,30.57,West,277,1.0,6.0,61,0.00,,,0.00,,2013-03-10 06:11:00,
2013-03-09 22:21:00,38.0,26.0,30.57,West,277,1.0,6.0,61,0.00,,,0.00,,2013-03-10 06:21:00,
2013-03-09 22:31:00,38.0,27.0,30.57,WNW,283,2.0,5.0,63,0.00,,,0.00,,2013-03-10 06:31:00,
2013-03-09 22:41:00,36.0,26.0,30.57,WNW,298,0.0,3.0,67,0.00,,,0.00,,2013-03-10 06:41:00,
2013-03-09 22:52:00,36.0,26.0,30.57,WNW,298,0.0,3.0,67,0.00,,,0.00,,2013-03-10 06:52:00,
2013-03-09 23:01:00,36.0,26.0,30.57,SW,233,3.0,3.0,67,0.00,,,0.00,,2013-03-10 07:01:00,
2013-03-09 23:11:00,36.0,26.0,30.57,SW,233,2.0,3.0,67,0.00,,,0.00,,2013-03-10 07:11:00,
2013-03-09 23:21:00,36.0,26.0,30.57,SW,233,2.0,3.0,67,0.00,,,0.00,,2013-03-10 07:21:00,
2013-03-09 23:31:00,34.0,23.0,30.57,SW,214,5.0,7.0,63,0.00,,,0.00,,2013-03-10 07:31:00,
2013-03-09 23:41:00,35.0,22.0,30.57,SW,217,5.0,8.0,58,0.00,,,0.00,,2013-03-10 07:41:00,
2013-03-09 23:52:00,35.0,22.0,30.57,SW,217,5.0,8.0,58,0.00,,,0.00,,2013-03-10 07:52:00,